Location: Aldenham
(51.6667°N, 0.3500°W)
Time: 06:30:20
(UTC+00:00)

A-11 Canister half - Pass Details

Date: 23 February 2026
Orbit: 1512 x 1687 km, 47.2° (Epoch: 8 March)

Event Time Altitude Azimuth Distance (km) Brightness Sun altitude
Rises 18:30:50 0° 205° (SSW) 4,923 12.1 -10.0°
Reaches altitude 10° 18:34:27 10° 195° (SSW) 3,943 11.4 -10.6°
Maximum altitude 18:42:54 31° 139° (SE) 2,625 9.9 -11.9°
Enters shadow 18:49:28 16° 89° (E) 3,479 10.2 -12.9°
Drops below altitude 10° 18:51:17 10° 82° (E) 3,919 - -13.2°
Sets 18:54:51 0° 73° (ENE) 4,890 - -13.7°
